Tracking 19903 objects as of 16-Oct-2019
HD Live streaming from Space Station
objects crossing your sky now

COSMOS 1275 DEB

Track COSMOS 1275 DEB now!
10-day predictions


NORAD ID: 13802
Int'l Code: 1981-053GZ
Perigee: 939.7 km
Apogee: 1,030.0 km
Inclination: 82.8 °
Period: 104.6 minutes
Semi major axis: 7355 km
RCS: 0.052 m2 (small)
Launch date: June 4, 1981
Source: Commonwealth of Independent States (former USSR) (CIS)
Launch site: PLESETSK MISSILE AND SPACE COMPLEX (PKMTR)

Note: This is SATELLITE DEBRIS
aabbcc
Your satellite tracking list
Your tracking list is empty




NASA's NSSDC Master Catalog

Two Line Element Set (TLE):
1 13802U 81053GW  19288.91224854 +.00000250 +00000-0 +23873-3 0  9997
2 13802 082.8006 129.5634 0061350 184.7192 243.0873 13.76114678890038
Source of the keplerian elements: AFSPC